TimeCST,TemperatureF,Dew PointF,Humidity,Sea Level PressureIn,VisibilityMPH,Wind Direction,Wind SpeedMPH,Gust SpeedMPH,PrecipitationIn,Events,Conditions,WindDirDegrees,DateUTC
12:16 AM,57.2,57.2,100,29.97,-9999.0,Calm,Calm,-,0.06,Rain,Light Rain,0,2013-02-05 06:16:00
12:53 AM,57.0,55.9,96,29.97,-9999.0,ENE,5.8,-,0.10,Rain,Light Rain,70,2013-02-05 06:53:00
1:04 AM,57.2,55.4,94,29.97,-9999.0,ENE,4.6,-,0.00,Rain,Light Rain,70,2013-02-05 07:04:00
1:12 AM,57.2,55.4,94,29.96,-9999.0,East,5.8,-,0.01,Rain,Light Rain,90,2013-02-05 07:12:00
1:26 AM,57.2,55.4,94,29.96,-9999.0,East,5.8,-,0.04,Rain,Light Rain,100,2013-02-05 07:26:00
1:53 AM,57.0,55.9,96,29.96,-9999.0,East,8.1,-,0.14,Rain,Rain,100,2013-02-05 07:53:00
2:25 AM,57.2,55.4,94,29.95,-9999.0,East,10.4,-,0.01,Rain,Light Rain,100,2013-02-05 08:25:00
2:33 AM,57.2,55.4,94,29.94,-9999.0,East,10.4,-,0.01,,Overcast,100,2013-02-05 08:33:00
2:53 AM,57.0,55.0,93,29.94,-9999.0,East,8.1,-,0.01,,Overcast,90,2013-02-05 08:53:00
3:53 AM,57.0,55.0,93,29.94,-9999.0,East,5.8,-,N/A,,Overcast,90,2013-02-05 09:53:00
4:53 AM,57.0,55.0,93,29.94,-9999.0,NNE,3.5,-,N/A,,Overcast,30,2013-02-05 10:53:00
5:53 AM,57.0,55.0,93,29.96,-9999.0,Calm,Calm,-,N/A,,Overcast,0,2013-02-05 11:53:00
6:53 AM,57.9,55.0,90,29.97,10.0,ENE,4.6,-,N/A,,Overcast,70,2013-02-05 12:53:00
7:53 AM,60.8,57.2,88,29.98,10.0,East,10.4,-,N/A,,Overcast,80,2013-02-05 13:53:00
8:53 AM,62.1,57.0,84,29.99,10.0,East,12.7,-,N/A,,Mostly Cloudy,80,2013-02-05 14:53:00
9:40 AM,62.6,57.2,82,30.00,-9999.0,East,10.4,-,N/A,,Mostly Cloudy,80,2013-02-05 15:40:00
9:53 AM,63.0,57.9,84,30.01,-9999.0,ENE,10.4,-,N/A,,Overcast,60,2013-02-05 15:53:00
10:53 AM,64.0,59.0,84,30.01,10.0,East,4.6,-,N/A,,Overcast,80,2013-02-05 16:53:00
11:53 AM,64.9,59.0,81,30.00,-9999.0,NE,5.8,-,N/A,,Overcast,40,2013-02-05 17:53:00
12:53 PM,64.9,59.0,81,29.98,10.0,North,5.8,-,N/A,,Overcast,10,2013-02-05 18:53:00
1:53 PM,66.0,59.0,78,29.97,10.0,Variable,4.6,-,N/A,,Overcast,0,2013-02-05 19:53:00
2:32 PM,66.2,59.0,78,29.96,10.0,NNW,4.6,-,N/A,,Overcast,340,2013-02-05 20:32:00
2:53 PM,66.9,59.0,76,29.96,10.0,North,5.8,-,N/A,,Mostly Cloudy,350,2013-02-05 20:53:00
3:53 PM,68.0,57.9,70,29.96,10.0,Calm,Calm,-,N/A,,Overcast,0,2013-02-05 21:53:00
4:53 PM,68.0,59.0,73,29.97,10.0,NNE,4.6,-,N/A,,Scattered Clouds,20,2013-02-05 22:53:00
5:53 PM,62.1,59.0,90,29.97,10.0,SSE,4.6,-,N/A,,Scattered Clouds,150,2013-02-05 23:53:00
6:53 PM,60.1,57.9,93,29.99,-9999.0,Calm,Calm,-,N/A,,Clear,0,2013-02-06 00:53:00
7:53 PM,59.0,57.0,93,30.01,10.0,Calm,Calm,-,N/A,,Clear,0,2013-02-06 01:53:00
8:53 PM,55.9,55.0,97,30.02,10.0,Calm,Calm,-,N/A,,Clear,0,2013-02-06 02:53:00
9:53 PM,54.0,54.0,100,30.02,3.0,Calm,Calm,-,N/A,Fog,Shallow Fog,0,2013-02-06 03:53:00
10:13 PM,53.6,53.6,100,30.03,0.5,Calm,Calm,-,N/A,Fog,Fog,0,2013-02-06 04:13:00
10:50 PM,53.6,51.8,94,30.04,-9999.0,Calm,Calm,-,N/A,,Overcast,0,2013-02-06 04:50:00
10:53 PM,53.1,52.0,96,30.04,0.2,Calm,Calm,-,N/A,Fog,Fog,0,2013-02-06 04:53:00
11:53 PM,54.0,53.1,97,30.04,-9999.0,Calm,Calm,-,0.01,,Overcast,0,2013-02-06 05:53:00